Reading, PA

3:24 AM EST on November 21, 2019 (GMT -0500)
Reading Regional-Spaatz

Weather History for KRDG - October, 2019

Change the Weather History Date:

Sunday, October 13, 2019

  Actual Average Record
Temperature  
Mean Temperature 52 °F 54 °F  
Max Temperature 66 °F 65 °F 87 °F (1954)
Min Temperature 39 °F 44 °F 28 °F (1906)
Degree Days  
Heating Degree Days 12 11  
Month to date heating degree days 74 117  
Since 1 July heating degree days 90 196  
Cooling Degree Days 0 0  
Month to date cooling degree days 25 5  
Year to date cooling degree days 1239 892  
Growing Degree Days 2 (Base 50)    
Moisture  
Dew Point 46 °F    
Average Humidity 76    
Maximum Humidity 100    
Minimum Humidity 54    
Precipitation  
Precipitation 0.00 in 0.11 in 1.63 in (1895)
Month to date precipitation 0.95 1.68  
Year to date precipitation 43.18 34.98  
Sea Level Pressure  
Sea Level Pressure 30.07 in    
Wind  
Wind Speed 4 mph ()    
Max Wind Speed 12 mph    
Max Gust Speed 15 mph    
Visibility 9.4 miles    
Events      
T = Trace of Precipitation, MM = Missing Value Source: Averaged Metar Reports

Daily Weather History Graph

Daily Weather History Graph

Search for Another Location

Airport or City:

Astronomy

Oct. 13, 2019 Rise Set
Actual Time 7:12 AM EDT 6:27 PM EDT
Civil Twilight 6:44 AM EDT 6:54 PM EDT
Nautical Twilight 6:13 AM EDT 7:26 PM EDT
Astronomical Twilight 5:41 AM EDT 7:57 PM EDT
Moon 6:48 PM EDT (10/13) 6:44 AM EDT (10/13)
Length of Visible Light 12h 09m
Length of Day
11h 14m
Full, 100% of the Moon is Illuminated
Oct 13
Full
Oct 13
Full
Oct 21
Last Quarter
Oct 27
New
Nov 4
First Quarter

Hourly Weather History & Observations

Time (EDT) Temp. Windchill Dew Point Humidity Pressure Visibility Wind Dir Wind Speed Gust Speed Precip Events Conditions
12:54 AM 51.1 °F - 45.0 °F 80% 30.06 in 10.0 mi WNW 6.9 mph - N/A   Clear
1:54 AM 48.0 °F - 43.0 °F 83% 30.07 in 10.0 mi WNW 6.9 mph - N/A   Clear
2:54 AM 46.9 °F - 42.1 °F 83% 30.08 in 10.0 mi West 4.6 mph - N/A   Clear
3:54 AM 43.0 °F - 43.0 °F 100% 30.08 in 8.0 mi Calm Calm - N/A   Clear
4:21 AM 42.1 °F 40.2 °F 41.0 °F 96% 30.07 in 1.8 mi NE 3.5 mph - N/A   Clear
4:32 AM 42.1 °F 40.2 °F 41.0 °F 96% 30.07 in 4.0 mi North 3.5 mph - N/A   Clear
4:54 AM 42.1 °F 39.2 °F 42.1 °F 100% 30.09 in 10.0 mi NW 4.6 mph - N/A   Clear
5:54 AM 41.0 °F 38.0 °F 39.9 °F 96% 30.12 in 10.0 mi SSW 4.6 mph - N/A   Clear
6:54 AM 39.9 °F - 39.9 °F 100% 30.13 in 10.0 mi Calm Calm - N/A   Clear
7:54 AM 39.0 °F 35.7 °F 37.9 °F 96% 30.14 in 10.0 mi WNW 4.6 mph - N/A   Clear
8:54 AM 45.0 °F - 43.0 °F 93% 30.15 in 10.0 mi Calm Calm - N/A   Clear
9:54 AM 50.0 °F - 46.0 °F 86% 30.14 in 10.0 mi Calm Calm - N/A   Clear
10:54 AM 55.9 °F - 43.0 °F 62% 30.12 in 10.0 mi North 6.9 mph - N/A   Clear
11:54 AM 60.1 °F - 46.0 °F 60% 30.11 in 10.0 mi Calm Calm - N/A   Clear
12:54 PM 62.1 °F - 46.9 °F 58% 30.10 in 10.0 mi Calm Calm - N/A   Partly Cloudy
1:54 PM 64.9 °F - 48.0 °F 54% 30.07 in 10.0 mi Variable 4.6 mph - N/A   Mostly Cloudy
2:54 PM 64.9 °F - 48.0 °F 54% 30.06 in 10.0 mi Variable 3.5 mph - N/A   Mostly Cloudy
3:54 PM 64.9 °F - 48.0 °F 54% 30.04 in 10.0 mi Variable 4.6 mph - N/A   Mostly Cloudy
4:54 PM 64.0 °F - 48.0 °F 56% 30.03 in 10.0 mi Variable 4.6 mph - N/A   Mostly Cloudy
5:54 PM 64.0 °F - 48.0 °F 56% 30.03 in 10.0 mi SSE 6.9 mph - N/A   Overcast
6:54 PM 62.1 °F - 48.9 °F 62% 30.03 in 10.0 mi South 5.8 mph - N/A   Overcast
7:54 PM 61.0 °F - 48.9 °F 64% 30.04 in 10.0 mi South 4.6 mph - N/A   Overcast
8:33 PM 62.1 °F - 50.0 °F 65% 30.01 in 10.0 mi South 6.9 mph - N/A   Overcast
8:54 PM 62.1 °F - 50.0 °F 65% 30.03 in 10.0 mi South 6.9 mph - N/A   Overcast
9:17 PM 61.0 °F - 51.1 °F 70% 30.01 in 10.0 mi South 5.8 mph - N/A   Overcast
9:54 PM 61.0 °F - 52.0 °F 72% 30.03 in 10.0 mi South 5.8 mph - N/A   Overcast
10:54 PM 60.1 °F - 53.1 °F 78% 30.02 in 10.0 mi South 3.5 mph - N/A   Overcast
11:15 PM 59.0 °F - 54.0 °F 83% 30.01 in 10.0 mi South 5.8 mph - N/A   Overcast
11:54 PM 57.9 °F - 54.0 °F 87% 30.01 in 10.0 mi Calm Calm - N/A   Overcast